Location: Monteux
(44.0348°N, 4.9972°E)
Time: 13:17:19
(UTC+00:00)

NOAA 6 - Pass Details

Date: 30 November 2020
Orbit: 773 x 786 km, 98.7° (Epoch: 26 January)

Event Time Altitude Azimuth Distance (km) Brightness Sun altitude
Rises 16:50:23 0° 171° (S) 3,254 7.4 -8.4°
Reaches altitude 10° 16:52:43 10° 173° (S) 2,328 6.7 -8.8°
Maximum altitude 16:57:50 70° 257° (WSW) 830 4.4 -9.7°
Drops below altitude 10° 17:02:58 10° 342° (NNW) 2,336 6.5 -10.5°
Sets 17:05:19 0° 344° (NNW) 3,266 7.2 -10.9°
